Flag for USA

Past Weather in Pierre, South Dakota, USA — Yesterday and Last 2 Weeks

Currently: 9 °F. Ice fog. (Weather station: Pierre Regional Airport, USA). See more current weather

Past Weather in Pierre — Graph

°F

Pierre Temperature Yesterday

Maximum temperature yesterday: 28 °F (at 6:38 am)
Minimum temperature yesterday: 14 °F (at 10:53 pm)
Average temperature yesterday: 26 °F

High & Low Weather Summary for the Past Weeks

 TemperatureHumidityPressure
High54 °F (Jan 13, 2:53 pm)100% (Jan 24, 3:53 am)30.40 "Hg (Jan 24, 3:53 am)
Low0 °F (Jan 24, 7:53 am)27% (Jan 14, 2:53 pm)29.51 "Hg (Jan 13, 3:53 pm)
Average29 °F68%29.98 "Hg
* Reported Jan 11 1:53 pm — Jan 24 7:53 am, Pierre. Weather by CustomWeather, © 2021

Note: Actual official high and low records may vary slightly from our data, if they occured in-between our weather recording intervals... More about our weather records

Pierre Weather History for the Previous 24 Hours

Scroll right to see more
 ConditionsComfort  
Time TempWeatherWind HumidityBarometerVisibility
7:53 am
Sun, Jan 24
0 °FIce fog.No wind79%30.17 "Hg0 mi
7:14 am3 °FIce fog.No wind79%30.06 "Hg0 mi
6:53 am2 °FIce fog.No wind92%30.16 "Hg0 mi
6:31 am3 °FIce fog.No wind91%30.06 "Hg0 mi
6:13 am5 °FIce fog.No wind95%30.05 "Hg2 mi
5:53 am1 °FIce fog.No wind95%30.15 "Hg4 mi
5:12 am11 °FClear.No wind84%30.05 "Hg9 mi
4:53 am9 °FIce fog.No wind91%30.14 "Hg6 mi
3:53 am6 °FClear.No wind100%30.13 "Hg10 mi
2:53 am10 °FClear.No wind84%30.12 "Hg10 mi
1:53 am12 °FPassing clouds.6 mph80%30.11 "Hg10 mi
12:53 am16 °FClear.13 mph84%30.11 "Hg10 mi
11:53 pm
Sat, Jan 23
19 °FClear.13 mph85%30.09 "Hg10 mi
10:53 pm14 °FClear.7 mph87%30.07 "Hg10 mi
9:53 pm20 °FClear.8 mph89%30.03 "Hg10 mi
9:27 pm17 °FIce fog.7 mph92%29.96 "Hg4 mi
9:20 pm16 °FIce fog.6 mph92%29.95 "Hg2 mi
9:05 pm16 °FIce fog.6 mph92%29.95 "Hg0 mi
8:30 pm18 °FIce fog.7 mph92%29.94 "Hg3 mi
7:53 pm17 °FIce fog.5 mph92%30.01 "Hg1 mi
7:32 pm24 °FIce fog.No wind88%29.93 "Hg2 mi
6:53 pm25 °FPassing clouds.5 mph88%29.97 "Hg9 mi
5:53 pm28 °FOvercast.No wind85%29.95 "Hg10 mi
4:53 pm27 °FOvercast.No wind89%29.93 "Hg9 mi
4:40 pm28 °FMostly cloudy.No wind89%29.87 "Hg10 mi
3:59 pm28 °FLight snow. Ice fog.6 mph85%29.86 "Hg4 mi
3:27 pm28 °FLight snow. Ice fog.7 mph85%29.85 "Hg2 mi
3:15 pm28 °FLight snow. Ice fog.7 mph85%29.85 "Hg2 mi
2:56 pm28 °FLight snow. Ice fog.8 mph85%29.85 "Hg2 mi
1:53 pm28 °FLight snow. Ice fog.8 mph85%29.91 "Hg2 mi
1:40 pm28 °FLight snow. Ice fog.8 mph85%29.85 "Hg2 mi
1:17 pm28 °FLight snow. Ice fog.9 mph85%29.86 "Hg1 mi
1:06 pm28 °FLight snow. Ice fog.9 mph85%29.86 "Hg1 mi
12:53 pm28 °FLight snow. Ice fog.8 mph85%29.92 "Hg1 mi
12:36 pm28 °FLight snow. Ice fog.10 mph85%29.87 "Hg1 mi
12:15 pm28 °FLight snow. Ice fog.10 mph85%29.88 "Hg2 mi
11:57 am28 °FLight snow. Ice fog.9 mph85%29.89 "Hg2 mi
11:14 am28 °FLight snow. Ice fog.9 mph89%29.90 "Hg1 mi
10:53 am28 °FSnow. Ice fog.9 mph89%29.97 "Hg1 mi
10:28 am28 °FLight snow. Ice fog.9 mph85%29.91 "Hg1 mi
10:22 am28 °FLight snow. Ice fog.9 mph85%29.91 "Hg1 mi
9:53 am28 °FSnow. Ice fog.9 mph85%29.97 "Hg1 mi
9:17 am28 °FLight snow. Ice fog.12 mph85%29.90 "Hg1 mi
9:12 am28 °FLight snow. Ice fog.10 mph85%29.90 "Hg1 mi
Weather by CustomWeather, © 2021

See weather overview